N2VSB-13 Weather Reports


time (UTC)temp
F
wind
direction
speed
knots
gust
knots
rain 1hr
in
rain 24hr
in
rain mn
in
humidity
%
barometer
mb
20260507000519 46 168 0.9 1.7 0.01 0.77 0.73 99 1009.1
20260506235519 46 186 0.9 1.7 0.01 0.77 0.73 99 1008.8
20260506234519 46 291 0.0 1.7 0.01 0.76 0.73 99 1008.6
20260506233519 46 211 0.9 1.7 0.01 0.76 0.73 99 1008.4
20260506232519 47 188 0.9 1.7 0.00 0.76 0.72 99 1008.2
20260506231519 47 199 0.9 1.7 0.00 0.75 0.72 99 1008.2
20260506230519 47 24 0.0 1.7 0.00 0.75 0.72 99 1008.1
20260506225540 47 4 0.9 2.6 0.00 0.76 0.72 99 1007.9
20260506224520 47 356 0.0 1.7 0.00 0.76 0.72 99 1007.7
20260506223540 47 168 0.0 1.7 0.00 0.76 0.72 99 1007.4
20260506222520 47 223 0.0 1.7 0.00 0.76 0.72 99 1007.3
20260506221520 47 12 0.9 2.6 0.00 0.76 0.72 100 1007.0
20260506220520 47 6 0.9 2.6 0.00 0.76 0.72 100 1006.7
20260506215521 47 35 1.7 3.5 0.00 0.76 0.72 100 1006.6
20260506214521 47 153 1.7 3.5 0.01 0.75 0.72 100 1006.5
20260506213521 48 329 1.7 3.5 0.06 0.75 0.71 100 1006.5
20260506212521 48 271 1.7 3.5 0.06 0.75 0.71 100 1006.2
20260506211522 48 40 1.7 3.5 0.07 0.75 0.71 100 1006.0
20260506210522 48 22 1.7 3.5 0.07 0.75 0.71 99 1005.9
20260506205519 48 360 2.6 5.2 0.07 0.75 0.71 99 1005.5
20260506204522 49 65 1.7 3.5 0.06 0.75 0.71 99 1005.3
20260506203522 50 146 1.7 2.6 0.01 0.69 0.66 98 1005.1
20260506202523 50 33 1.7 4.3 0.00 0.69 0.65 98 1005.2
20260506201600 53 121 2.6 4.3 0.00 0.69 0.65 98 1004.7
20260506200523 57 251 1.7 2.6 0.01 0.69 0.65 99 1004.9
20260506195540 61 132 1.7 4.3 0.01 0.69 0.65 100 1004.9
20260506194523 61 253 0.9 2.6 0.03 0.69 0.65 100 1004.9
20260506193520 61 297 2.6 5.2 0.05 0.69 0.65 100 1005.0
20260506192523 61 275 0.9 3.5 0.07 0.69 0.65 100 1005.0
20260506191543 61 268 1.7 3.5 0.09 0.68 0.64 100 1005.0
20260506190523 61 302 1.7 4.3 0.10 0.68 0.64 100 1005.0
20260506185524 61 39 0.9 2.6 0.10 0.67 0.63 100 1005.1
20260506184541 61 344 2.6 5.2 0.09 0.66 0.62 99 1005.1
20260506183524 61 356 1.7 3.5 0.07 0.63 0.60 99 1005.2
20260506182521 61 343 3.5 7.8 0.07 0.61 0.57 99 1005.3
20260506181521 61 338 3.5 7.8 0.09 0.59 0.56 99 1005.3
20260506180521 61 334 4.3 7.8 0.09 0.58 0.54 100 1005.3
20260506175602 61 313 3.5 7.0 0.11 0.57 0.53 99 1005.2
20260506174525 60 307 1.7 4.3 0.13 0.57 0.53 99 1005.3
20260506173525 60 285 0.9 3.5 0.14 0.56 0.53 99 1005.6
20260506172525 59 294 1.7 3.5 0.13 0.54 0.50 99 1005.6
20260506171525 59 65 0.9 1.7 0.11 0.51 0.47 99 1005.8
20260506170525 58 1 0.9 2.6 0.10 0.49 0.45 99 1005.8
20260506165545 58 345 0.9 1.7 0.09 0.46 0.42 100 1005.9
20260506164526 57 34 0.9 1.7 0.09 0.44 0.40 100 1005.9
20260506163526 57 28 1.7 2.6 0.10 0.42 0.38 100 1006.1
20260506162547 57 201 0.9 0.9 0.10 0.41 0.37 100 1006.1
20260506161526 57 198 0.9 1.7 0.10 0.40 0.36 100 1006.2
20260506160526 57 204 0.9 1.7 0.10 0.38 0.34 100 1006.5
20260506155526 56 47 0.9 2.6 0.10 0.37 0.33 100 1006.7
20260506154527 56 209 0.9 1.7 0.10 0.34 0.30 100 1006.8
20260506153527 56 215 0.9 1.7 0.10 0.32 0.29 100 1006.8
20260506152527 56 213 0.9 0.9 0.11 0.31 0.27 100 1006.8
20260506151528 55 216 0.9 0.9 0.11 0.30 0.26 100 1007.0
20260506150527 55 203 0.9 1.7 0.11 0.28 0.24 100 1007.0
20260506145527 55 153 0.0 0.9 0.11 0.27 0.23 99 1007.3
20260506144528 55 198 0.0 0.9 0.09 0.25 0.21 99 1007.4
20260506143528 55 161 0.0 0.9 0.08 0.23 0.19 99 1007.7
20260506142548 55 151 0.0 0.0 0.07 0.20 0.16 99 1007.7
20260506141528 55 170 0.9 0.9 0.05 0.18 0.14 99 1007.7
20260506140528 55 164 0.9 1.7 0.07 0.17 0.13 99 1007.9
20260506135608 55 0.0 0.0 0.07 0.16 0.12 99 1007.8
20260506134528 54 187 0.0 0.9 0.10 0.15 0.11 99 1007.4
20260506133529 54 178 0.0 0.9 0.10 0.15 0.11 99 1007.4
20260506132529 54 200 0.0 0.9 0.10 0.13 0.10 99 1007.4
20260506131529 54 252 0.9 1.7 0.09 0.13 0.09 99 1007.6
20260506130529 55 179 0.0 0.9 0.07 0.11 0.07 99 1007.6
20260506125529 55 173 0.9 1.7 0.05 0.09 0.05 99 1007.4
20260506124529 55 183 0.9 0.9 0.02 0.06 0.02 98 1007.6
20260506123530 55 171 0.9 0.9 0.00 0.04 0.00 98 1008.1
20260506122550 55 215 0.9 2.6 0.00 0.04 0.00 98 1008.3
20260506121550 54 195 0.9 0.9 0.00 0.04 0.00 98 1008.2
20260506120530 54 193 0.9 2.6 0.00 0.04 0.00 98 1008.4
20260506115530 54 210 0.0 0.0 0.00 0.04 0.00 98 1008.2
20260506114530 54 0.0 0.0 0.00 0.04 0.00 98 1007.9
20260506113531 54 0.0 0.0 0.00 0.04 0.00 98 1007.8
20260506112531 54 300 0.9 1.7 0.00 0.04 0.00 98 1007.4
20260506111552 54 148 0.9 1.7 0.00 0.04 0.00 98 1007.7
20260506110531 54 0.0 0.0 0.00 0.04 0.00 98 1007.8
20260506105532 54 0.0 0.0 0.00 0.04 0.00 98 1007.8
20260506104517 54 303 0.0 1.7 0.00 0.04 0.00 98 1007.7
20260506103517 53 0.0 0.0 0.00 0.04 0.00 98 1007.4
20260506102517 53 150 0.9 1.7 0.00 0.07 0.00 98 1007.5
20260506101517 53 0.0 0.0 0.00 0.08 0.00 97 1007.4
20260506100517 53 0.0 0.0 0.00 0.08 0.00 97 1007.3
20260506095516 53 128 0.0 0.9 0.00 0.08 0.00 97 1007.2
20260506094517 53 0.0 0.0 0.00 0.08 0.00 97 1007.2
20260506093518 53 0.0 0.0 0.00 0.08 0.00 97 1007.3
20260506092538 53 0.0 0.0 0.00 0.08 0.00 96 1007.2
20260506091518 53 0.0 0.0 0.00 0.08 0.00 96 1007.3
20260506090518 53 0.0 0.0 0.00 0.08 0.00 96 1007.3
20260506085517 53 0.0 0.0 0.00 0.08 0.00 96 1007.3
20260506084517 54 0.0 0.0 0.00 0.08 0.00 95 1007.5
20260506083518 54 0.0 0.0 0.00 0.08 0.00 95 1007.6
20260506082517 54 0.0 0.0 0.00 0.08 0.00 95 1007.8
20260506081518 54 0.0 0.0 0.00 0.08 0.00 95 1007.8
20260506080538 55 151 0.9 1.7 0.00 0.08 0.00 95 1007.9
20260506072517 55 228 2.6 4.3 0.00 0.08 0.00 94 1008.2
20260506071517 55 37 1.7 4.3 0.00 0.08 0.00 95 1008.2
20260506070519 55 242 3.5 4.3 0.00 0.08 0.00 95 1008.2
20260506061518 56 22 1.7 3.5 0.00 0.08 0.00 97 1008.7
20260506060558 57 202 0.9 2.6 0.00 0.08 0.00 97 1008.7
20260506050519 59 206 0.9 0.9 0.00 0.08 0.00 97 1008.7
20260506044520 59 13 1.7 2.6 0.00 0.08 0.00 97 1009.0
20260506043520 59 139 0.9 1.7 0.00 0.08 0.00 97 1009.0
20260506042540 60 15 1.7 2.6 0.00 0.08 0.00 96 1009.2
20260506041517 60 13 0.0 1.7 0.00 0.08 0.00 96 1008.6
20260506040517 60 157 0.9 1.7 0.00 0.08 0.00 96 1008.7
20260506035517 60 103 0.0 1.7 0.00 0.08 0.08 96 1008.5
20260506034517 60 55 0.0 0.9 0.00 0.08 0.08 96 1008.6
20260506033520 60 60 0.0 0.9 0.00 0.08 0.08 96 1008.5
20260506032540 60 20 0.9 2.6 0.00 0.08 0.08 97 1008.4
20260506031518 60 16 1.7 2.6 0.00 0.08 0.08 97 1008.6
20260506030518 60 44 0.9 1.7 0.00 0.08 0.08 97 1008.4
20260506025518 61 342 0.9 2.6 0.03 0.08 0.08 96 1008.2
20260506024518 61 82 0.0 0.9 0.03 0.08 0.08 95 1008.0
20260506023519 61 0.0 0.0 0.03 0.08 0.08 95 1007.8
20260506022518 61 102 0.9 1.7 0.03 0.08 0.08 94 1008.0
20260506021518 61 79 0.9 1.7 0.03 0.08 0.08 93 1008.0
20260506020519 61 217 0.0 1.7 0.03 0.07 0.07 92 1007.9
20260506015519 62 83 0.9 1.7 0.00 0.05 0.05 91 1007.8
20260506014516 62 37 0.0 0.9 0.01 0.05 0.05 89 1007.6
20260506013517 62 79 0.0 0.9 0.01 0.05 0.05 88 1007.4
20260506012519 63 97 0.9 1.7 0.01 0.05 0.05 87 1007.3
20260506011520 63 87 0.9 2.6 0.00 0.05 0.05 86 1007.3
20260506010517 63 215 0.9 0.9 0.00 0.05 0.05 85 1007.2
20260506005517 63 65 0.9 3.5 0.00 0.05 0.05 83 1007.1
20260506004520 63 188 0.9 0.9 0.00 0.04 0.04 83 1007.0
20260506003518 63 61 0.9 3.5 0.00 0.04 0.04 82 1006.8
20260506002518 63 205 0.9 0.9 0.00 0.04 0.04 83 1006.6
20260506001518 64 78 1.7 2.6 0.00 0.04 0.04 80 1006.4